Time,TemperatureF,DewpointF,PressureIn,WindDirection,WindDirectionDegrees,WindSpeedMPH,WindSpeedGustMPH,Humidity,HourlyPrecipIn,Conditions,Clouds,dailyrainin,SoftwareType,DateUTC
2014-02-16 00:01:00,16.7,9.9,29.89,WNW,286,0.0,0.0,74,0.00,,---,0.12,VWS V14.01,2014-02-16 05:01:00,
2014-02-16 00:02:00,16.7,9.9,29.89,WNW,286,0.0,0.0,74,0.00,,---,0.12,VWS V14.01,2014-02-16 05:02:00,
2014-02-16 00:04:00,16.5,9.7,29.89,WNW,286,0.0,0.0,74,0.00,,---,0.00,VWS V14.01,2014-02-16 05:04:00,
2014-02-16 00:09:00,16.2,9.6,29.89,WNW,286,0.0,0.0,75,0.00,,---,0.00,VWS V14.01,2014-02-16 05:09:00,
2014-02-16 00:14:00,15.6,9.4,29.89,WNW,286,0.0,0.0,76,0.00,,---,0.00,VWS V14.01,2014-02-16 05:14:00,
2014-02-16 00:19:00,15.4,9.5,29.89,WNW,286,0.0,0.0,77,0.00,,---,0.00,VWS V14.01,2014-02-16 05:19:00,
2014-02-16 00:24:00,15.1,9.5,29.89,WNW,286,0.0,0.0,78,0.00,,---,0.00,VWS V14.01,2014-02-16 05:24:00,
2014-02-16 00:29:00,15.3,9.9,29.89,WNW,286,0.0,0.0,79,0.00,,---,0.00,VWS V14.01,2014-02-16 05:29:00,
2014-02-16 00:35:00,15.4,10.1,29.89,WNW,286,0.0,0.0,79,0.00,,---,0.00,VWS V14.01,2014-02-16 05:35:00,
2014-02-16 00:40:00,15.4,9.8,29.89,WNW,286,0.0,0.0,78,0.00,,---,0.00,VWS V14.01,2014-02-16 05:40:00,
2014-02-16 00:45:00,15.3,9.6,29.89,WNW,286,0.0,0.0,78,0.00,,---,0.00,VWS V14.01,2014-02-16 05:45:00,
2014-02-16 00:50:00,15.1,9.5,29.89,WNW,286,0.0,0.0,78,0.00,,---,0.00,VWS V14.01,2014-02-16 05:50:00,
2014-02-16 00:55:00,14.5,8.9,29.89,WNW,286,0.0,0.0,78,0.00,,---,0.00,VWS V14.01,2014-02-16 05:55:00,
2014-02-16 01:00:00,14.4,9.1,29.89,WNW,286,0.0,0.0,79,0.00,,---,0.00,VWS V14.01,2014-02-16 06:00:00,
2014-02-16 01:05:00,14.7,9.4,29.89,WNW,286,0.0,0.0,79,0.00,,---,0.00,VWS V14.01,2014-02-16 06:05:00,
2014-02-16 01:10:00,14.4,9.3,29.89,WNW,286,0.0,0.0,80,0.00,,---,0.00,VWS V14.01,2014-02-16 06:10:00,
2014-02-16 01:15:00,14.0,9.0,29.89,WNW,286,0.0,0.0,80,0.00,,---,0.00,VWS V14.01,2014-02-16 06:15:00,
2014-02-16 01:20:00,13.8,8.8,29.89,WNW,286,0.0,0.0,80,0.00,,---,0.00,VWS V14.01,2014-02-16 06:20:00,
2014-02-16 01:26:00,13.6,8.6,29.89,WNW,286,0.0,0.0,80,0.00,,---,0.00,VWS V14.01,2014-02-16 06:26:00,
2014-02-16 01:31:00,13.8,8.8,29.89,WNW,286,0.0,0.0,80,0.00,,---,0.00,VWS V14.01,2014-02-16 06:31:00,
2014-02-16 01:36:00,13.8,8.8,29.89,WNW,286,0.0,0.0,80,0.00,,---,0.00,VWS V14.01,2014-02-16 06:36:00,
2014-02-16 01:41:00,13.8,8.8,29.89,WNW,286,0.0,0.0,80,0.00,,---,0.00,VWS V14.01,2014-02-16 06:41:00,
2014-02-16 01:46:00,13.8,9.6,29.89,WNW,286,0.0,0.0,83,0.00,,---,0.00,VWS V14.01,2014-02-16 06:46:00,
2014-02-16 01:51:00,13.6,9.4,29.89,WNW,286,0.0,0.0,83,0.00,,---,0.00,VWS V14.01,2014-02-16 06:51:00,
2014-02-16 01:56:00,13.6,9.4,29.89,WNW,286,0.0,0.0,83,0.00,,---,0.00,VWS V14.01,2014-02-16 06:56:00,
2014-02-16 02:01:00,13.6,9.4,29.89,WNW,286,0.0,0.0,83,0.00,,---,0.00,VWS V14.01,2014-02-16 07:01:00,
2014-02-16 02:06:00,13.5,9.3,29.89,WNW,286,0.0,0.0,83,0.00,,---,0.00,VWS V14.01,2014-02-16 07:06:00,
2014-02-16 02:11:00,13.5,9.3,29.89,WNW,286,0.0,0.0,83,0.00,,---,0.00,VWS V14.01,2014-02-16 07:11:00,
2014-02-16 02:16:00,13.6,9.4,29.89,WNW,286,0.0,0.0,83,0.00,,---,0.00,VWS V14.01,2014-02-16 07:16:00,
2014-02-16 02:21:00,13.6,9.4,29.89,WNW,286,0.0,0.0,83,0.00,,---,0.00,VWS V14.01,2014-02-16 07:21:00,
2014-02-16 02:26:00,13.5,9.3,29.89,WNW,286,0.0,0.0,83,0.00,,---,0.00,VWS V14.01,2014-02-16 07:26:00,
2014-02-16 02:31:00,13.3,9.1,29.89,WNW,286,0.0,0.0,83,0.00,,---,0.00,VWS V14.01,2014-02-16 07:31:00,
2014-02-16 02:37:00,12.9,8.7,29.89,WNW,286,0.0,0.0,83,0.00,,---,0.00,VWS V14.01,2014-02-16 07:37:00,
2014-02-16 02:42:00,12.9,8.7,29.89,WNW,286,0.0,0.0,83,0.00,,---,0.00,VWS V14.01,2014-02-16 07:42:00,
2014-02-16 02:47:00,12.9,8.7,29.89,WNW,286,0.0,0.0,83,0.00,,---,0.00,VWS V14.01,2014-02-16 07:47:00,
2014-02-16 02:52:00,13.1,8.9,29.89,WNW,286,0.0,0.0,83,0.00,,---,0.00,VWS V14.01,2014-02-16 07:52:00,
2014-02-16 02:57:00,13.1,8.9,29.89,WNW,286,0.0,0.0,83,0.00,,---,0.00,VWS V14.01,2014-02-16 07:57:00,
2014-02-16 03:02:00,13.3,9.1,29.89,WNW,286,0.0,0.0,83,0.00,,---,0.00,VWS V14.01,2014-02-16 08:02:00,
2014-02-16 03:07:00,13.5,9.3,29.89,WNW,286,0.0,0.0,83,0.00,,---,0.00,VWS V14.01,2014-02-16 08:07:00,
2014-02-16 03:12:00,13.6,9.4,29.89,WNW,286,0.0,0.0,83,0.00,,---,0.00,VWS V14.01,2014-02-16 08:12:00,
2014-02-16 03:17:00,13.6,9.4,29.89,WNW,286,0.0,0.0,83,0.00,,---,0.00,VWS V14.01,2014-02-16 08:17:00,
2014-02-16 03:22:00,14.0,10.1,29.89,WNW,286,0.0,0.0,84,0.00,,---,0.00,VWS V14.01,2014-02-16 08:22:00,
2014-02-16 03:27:00,14.0,9.8,29.89,WNW,286,0.0,0.0,83,0.00,,---,0.00,VWS V14.01,2014-02-16 08:27:00,
2014-02-16 03:32:00,14.2,10.0,29.89,WNW,286,0.0,0.0,83,0.00,,---,0.00,VWS V14.01,2014-02-16 08:32:00,
2014-02-16 03:37:00,14.2,10.0,29.89,WNW,286,0.0,0.0,83,0.00,,---,0.00,VWS V14.01,2014-02-16 08:37:00,
2014-02-16 03:42:00,14.4,9.9,29.89,WNW,286,0.0,0.0,82,0.00,,---,0.00,VWS V14.01,2014-02-16 08:42:00,
2014-02-16 03:47:00,14.5,10.1,29.89,WNW,286,0.0,0.0,82,0.00,,---,0.00,VWS V14.01,2014-02-16 08:47:00,
2014-02-16 03:52:00,14.5,10.1,29.89,WNW,286,0.0,0.0,82,0.00,,---,0.00,VWS V14.01,2014-02-16 08:52:00,
2014-02-16 03:57:00,14.5,10.1,29.89,WNW,286,0.0,0.0,82,0.00,,---,0.00,VWS V14.01,2014-02-16 08:57:00,
2014-02-16 04:02:00,14.5,10.1,29.89,WNW,286,0.0,0.0,82,0.00,,---,0.00,VWS V14.01,2014-02-16 09:02:00,
2014-02-16 04:07:00,14.9,10.4,29.89,WNW,286,0.0,0.0,82,0.00,,---,0.00,VWS V14.01,2014-02-16 09:07:00,
2014-02-16 04:12:00,14.9,10.4,29.89,WNW,286,0.0,0.0,82,0.00,,---,0.00,VWS V14.01,2014-02-16 09:12:00,
2014-02-16 04:17:00,14.5,10.1,29.89,WNW,286,0.0,0.0,82,0.00,,---,0.00,VWS V14.01,2014-02-16 09:17:00,
2014-02-16 04:22:00,14.7,10.0,29.89,WNW,286,0.0,0.0,81,0.00,,---,0.00,VWS V14.01,2014-02-16 09:22:00,
2014-02-16 04:27:00,14.9,10.1,29.89,WNW,286,0.0,0.0,81,0.00,,---,0.00,VWS V14.01,2014-02-16 09:27:00,
2014-02-16 04:32:00,14.9,10.1,29.89,WNW,286,0.0,0.0,81,0.00,,---,0.00,VWS V14.01,2014-02-16 09:32:00,
2014-02-16 04:37:00,14.5,9.8,29.89,WNW,286,0.0,0.0,81,0.00,,---,0.00,VWS V14.01,2014-02-16 09:37:00,
2014-02-16 04:42:00,14.7,10.0,29.89,WNW,286,0.0,0.0,81,0.00,,---,0.00,VWS V14.01,2014-02-16 09:42:00,
2014-02-16 04:47:00,14.5,9.8,29.89,WNW,286,0.0,0.0,81,0.00,,---,0.00,VWS V14.01,2014-02-16 09:47:00,
2014-02-16 04:52:00,14.7,10.0,29.89,WNW,286,0.0,0.0,81,0.00,,---,0.00,VWS V14.01,2014-02-16 09:52:00,
2014-02-16 04:57:00,14.7,10.0,29.89,WNW,286,0.0,0.0,81,0.00,,---,0.00,VWS V14.01,2014-02-16 09:57:00,
2014-02-16 05:02:00,14.9,10.1,29.89,WNW,286,0.0,0.0,81,0.00,,---,0.00,VWS V14.01,2014-02-16 10:02:00,
2014-02-16 05:07:00,14.5,9.8,29.89,WNW,286,0.0,0.0,81,0.00,,---,0.00,VWS V14.01,2014-02-16 10:07:00,
2014-02-16 05:12:00,14.5,9.8,29.89,WNW,286,0.0,0.0,81,0.00,,---,0.00,VWS V14.01,2014-02-16 10:12:00,
2014-02-16 05:17:00,14.2,9.4,29.89,WNW,286,0.0,0.0,81,0.00,,---,0.00,VWS V14.01,2014-02-16 10:17:00,
2014-02-16 05:22:00,14.2,9.4,29.89,WNW,286,0.0,0.0,81,0.00,,---,0.00,VWS V14.01,2014-02-16 10:22:00,
2014-02-16 05:27:00,13.8,9.1,29.89,WNW,286,0.0,0.0,81,0.00,,---,0.00,VWS V14.01,2014-02-16 10:27:00,
2014-02-16 05:32:00,14.0,9.5,29.89,WNW,286,0.0,0.0,82,0.00,,---,0.00,VWS V14.01,2014-02-16 10:32:00,
2014-02-16 05:37:00,14.4,9.6,29.89,WNW,286,0.0,0.0,81,0.00,,---,0.00,VWS V14.01,2014-02-16 10:37:00,
2014-02-16 05:42:00,14.9,10.1,29.89,WNW,286,0.0,0.0,81,0.00,,---,0.00,VWS V14.01,2014-02-16 10:42:00,
2014-02-16 05:47:00,15.1,10.3,29.89,WNW,286,0.0,0.0,81,0.00,,---,0.00,VWS V14.01,2014-02-16 10:47:00,
2014-02-16 05:52:00,15.4,10.4,29.89,WNW,286,0.0,0.0,80,0.00,,---,0.00,VWS V14.01,2014-02-16 10:52:00,
2014-02-16 05:57:00,15.4,10.1,29.89,WNW,286,0.0,0.0,79,0.00,,---,0.00,VWS V14.01,2014-02-16 10:57:00,
2014-02-16 06:02:00,15.4,9.8,29.89,WNW,286,0.0,0.0,78,0.00,,---,0.00,VWS V14.01,2014-02-16 11:02:00,
2014-02-16 06:07:00,15.1,9.2,29.89,WNW,286,0.0,0.0,77,0.00,,---,0.00,VWS V14.01,2014-02-16 11:07:00,
2014-02-16 06:12:00,14.5,8.7,29.86,WNW,286,0.0,0.0,77,0.00,,---,0.00,VWS V14.01,2014-02-16 11:12:00,
2014-02-16 06:17:00,14.2,8.6,29.86,WNW,286,0.0,0.0,78,0.00,,---,0.00,VWS V14.01,2014-02-16 11:17:00,
2014-02-16 06:22:00,13.8,8.5,29.86,WNW,286,0.0,0.0,79,0.00,,---,0.00,VWS V14.01,2014-02-16 11:22:00,
2014-02-16 06:27:00,13.8,8.5,29.86,WNW,286,0.0,0.0,79,0.00,,---,0.00,VWS V14.01,2014-02-16 11:27:00,
2014-02-16 06:32:00,14.2,8.9,29.86,WNW,286,0.0,0.0,79,0.00,,---,0.00,VWS V14.01,2014-02-16 11:32:00,
2014-02-16 06:37:00,14.0,9.0,29.86,WNW,286,0.0,0.0,80,0.00,,---,0.00,VWS V14.01,2014-02-16 11:37:00,
2014-02-16 06:42:00,14.2,9.2,29.86,WNW,286,0.0,0.0,80,0.00,,---,0.00,VWS V14.01,2014-02-16 11:42:00,
2014-02-16 06:47:00,14.5,9.8,29.86,WNW,286,0.0,0.0,81,0.00,,---,0.00,VWS V14.01,2014-02-16 11:47:00,
2014-02-16 06:51:00,15.4,10.4,29.86,WNW,286,0.0,0.0,80,0.00,,---,0.00,VWS V14.01,2014-02-16 11:51:00,
2014-02-16 06:57:00,16.2,10.5,29.86,WNW,286,0.0,0.0,78,0.00,,---,0.00,VWS V14.01,2014-02-16 11:57:00,
2014-02-16 07:02:00,16.0,10.1,29.86,WNW,286,0.0,0.0,77,0.00,,---,0.00,VWS V14.01,2014-02-16 12:02:00,
2014-02-16 07:07:00,16.0,10.1,29.86,WNW,286,0.0,0.0,77,0.00,,---,0.00,VWS V14.01,2014-02-16 12:07:00,
2014-02-16 07:12:00,16.5,10.3,29.86,WNW,286,0.0,0.0,76,0.00,,---,0.00,VWS V14.01,2014-02-16 12:12:00,
2014-02-16 07:17:00,16.9,10.3,29.86,WNW,286,0.0,0.0,75,0.00,,---,0.00,VWS V14.01,2014-02-16 12:17:00,
2014-02-16 07:22:00,16.7,10.2,29.86,WNW,286,0.0,0.0,75,0.00,,---,0.00,VWS V14.01,2014-02-16 12:22:00,
2014-02-16 07:27:00,16.7,9.9,29.89,WNW,286,0.0,0.0,74,0.00,,---,0.00,VWS V14.01,2014-02-16 12:27:00,
2014-02-16 07:32:00,16.7,10.2,29.89,WNW,286,0.0,0.0,75,0.00,,---,0.00,VWS V14.01,2014-02-16 12:32:00,
2014-02-16 07:37:00,16.9,10.6,29.89,WNW,286,0.0,0.0,76,0.00,,---,0.00,VWS V14.01,2014-02-16 12:37:00,
2014-02-16 07:42:00,16.9,10.6,29.89,WNW,286,0.0,0.0,76,0.00,,---,0.00,VWS V14.01,2014-02-16 12:42:00,
2014-02-16 07:47:00,17.1,10.5,29.89,WNW,286,0.0,0.0,75,0.00,,---,0.00,VWS V14.01,2014-02-16 12:47:00,
2014-02-16 07:52:00,18.0,9.8,29.89,WNW,286,0.0,0.0,70,0.00,,---,0.00,VWS V14.01,2014-02-16 12:52:00,
2014-02-16 07:57:00,18.3,9.9,29.89,WNW,286,0.0,0.0,69,0.00,,---,0.00,VWS V14.01,2014-02-16 12:57:00,
2014-02-16 08:02:00,18.3,10.2,29.89,WNW,286,0.0,0.0,70,0.00,,---,0.00,VWS V14.01,2014-02-16 13:02:00,
2014-02-16 08:07:00,18.3,10.2,29.89,WNW,286,0.0,0.0,70,0.00,,---,0.00,VWS V14.01,2014-02-16 13:07:00,
2014-02-16 08:12:00,18.5,10.0,29.89,WNW,286,0.0,0.0,69,0.00,,---,0.00,VWS V14.01,2014-02-16 13:12:00,
2014-02-16 08:17:00,18.3,9.5,29.89,WNW,286,0.0,0.0,68,0.00,,---,0.00,VWS V14.01,2014-02-16 13:17:00,
2014-02-16 08:22:00,18.0,9.2,29.89,WNW,286,0.0,0.0,68,0.00,,---,0.00,VWS V14.01,2014-02-16 13:22:00,
2014-02-16 08:27:00,17.4,9.3,29.89,WNW,286,0.0,0.0,70,0.00,,---,0.00,VWS V14.01,2014-02-16 13:27:00,
2014-02-16 08:32:00,17.2,9.8,29.89,WNW,286,0.0,0.0,72,0.00,,---,0.00,VWS V14.01,2014-02-16 13:32:00,
2014-02-16 08:37:00,17.4,10.3,29.89,WNW,286,0.0,0.0,73,0.00,,---,0.00,VWS V14.01,2014-02-16 13:37:00,
2014-02-16 08:42:00,18.1,10.6,29.89,WNW,286,0.0,0.0,72,0.00,,---,0.00,VWS V14.01,2014-02-16 13:42:00,
2014-02-16 08:47:00,18.1,10.0,29.89,WNW,286,0.0,0.0,70,0.00,,---,0.00,VWS V14.01,2014-02-16 13:47:00,
2014-02-16 08:52:00,18.9,10.4,29.89,WNW,286,0.0,0.0,69,0.00,,---,0.00,VWS V14.01,2014-02-16 13:52:00,
2014-02-16 08:58:00,20.1,10.9,29.89,WNW,286,0.0,0.0,67,0.00,,---,0.00,VWS V14.01,2014-02-16 13:58:00,
2014-02-16 09:03:00,20.7,10.1,29.89,WNW,286,0.0,0.0,63,0.00,,---,0.00,VWS V14.01,2014-02-16 14:03:00,
2014-02-16 09:08:00,21.0,10.1,29.89,WNW,286,0.0,0.0,62,0.00,,---,0.00,VWS V14.01,2014-02-16 14:08:00,
2014-02-16 09:13:00,20.8,9.5,29.89,WNW,286,0.0,0.0,61,0.00,,---,0.00,VWS V14.01,2014-02-16 14:13:00,
2014-02-16 09:18:00,20.1,9.2,29.89,WNW,286,0.0,0.0,62,0.00,,---,0.00,VWS V14.01,2014-02-16 14:18:00,
2014-02-16 09:23:00,19.9,9.4,29.89,WNW,286,0.0,0.0,63,0.00,,---,0.00,VWS V14.01,2014-02-16 14:23:00,
2014-02-16 09:28:00,19.8,9.6,29.89,WNW,286,0.0,0.0,64,0.00,,---,0.00,VWS V14.01,2014-02-16 14:28:00,
2014-02-16 09:33:00,19.6,10.1,29.89,WNW,286,0.0,0.0,66,0.00,,---,0.00,VWS V14.01,2014-02-16 14:33:00,
2014-02-16 09:38:00,20.1,10.6,29.89,WNW,286,0.0,0.0,66,0.00,,---,0.00,VWS V14.01,2014-02-16 14:38:00,
2014-02-16 09:43:00,20.3,10.4,29.89,WNW,286,0.0,0.0,65,0.00,,---,0.00,VWS V14.01,2014-02-16 14:43:00,
2014-02-16 09:48:00,21.0,10.8,29.89,WNW,286,0.0,0.0,64,0.00,,---,0.00,VWS V14.01,2014-02-16 14:48:00,
2014-02-16 09:53:00,21.6,10.9,29.89,WNW,286,0.0,0.0,63,0.00,,---,0.00,VWS V14.01,2014-02-16 14:53:00,
2014-02-16 09:58:00,21.9,10.6,29.89,WNW,286,0.0,0.0,61,0.00,,---,0.00,VWS V14.01,2014-02-16 14:58:00,
2014-02-16 10:03:00,23.0,10.8,29.89,WNW,286,0.0,0.0,59,0.00,,---,0.00,VWS V14.01,2014-02-16 15:03:00,
2014-02-16 10:08:00,24.8,11.7,29.89,WNW,286,0.0,0.0,57,0.00,,---,0.00,VWS V14.01,2014-02-16 15:08:00,
2014-02-16 10:13:00,24.3,10.4,29.89,WNW,286,0.0,0.0,55,0.00,,---,0.00,VWS V14.01,2014-02-16 15:13:00,
2014-02-16 10:18:00,24.4,10.6,29.89,WNW,286,0.0,0.0,55,0.00,,---,0.00,VWS V14.01,2014-02-16 15:18:00,
2014-02-16 10:23:00,24.6,10.8,29.89,WNW,286,0.0,0.0,55,0.00,,---,0.00,VWS V14.01,2014-02-16 15:23:00,
2014-02-16 10:28:00,24.3,10.4,29.89,WNW,286,0.0,0.0,55,0.00,,---,0.00,VWS V14.01,2014-02-16 15:28:00,
2014-02-16 10:33:00,25.2,11.7,29.89,WNW,286,0.0,0.0,56,0.00,,---,0.00,VWS V14.01,2014-02-16 15:33:00,
2014-02-16 10:38:00,26.6,12.2,29.89,WNW,286,0.0,0.0,54,0.00,,---,0.00,VWS V14.01,2014-02-16 15:38:00,
2014-02-16 10:43:00,28.0,12.7,29.86,WNW,286,0.0,0.0,52,0.00,,---,0.00,VWS V14.01,2014-02-16 15:43:00,
2014-02-16 10:48:00,28.6,12.8,29.86,WNW,286,0.0,0.0,51,0.00,,---,0.00,VWS V14.01,2014-02-16 15:48:00,
2014-02-16 10:53:00,27.3,12.5,29.86,WNW,286,0.0,0.0,53,0.00,,---,0.00,VWS V14.01,2014-02-16 15:53:00,
2014-02-16 10:58:00,26.4,12.0,29.89,WNW,286,0.0,0.0,54,0.00,,---,0.00,VWS V14.01,2014-02-16 15:58:00,
2014-02-16 11:03:00,27.0,12.6,29.89,WNW,285,0.0,0.0,54,0.00,,---,0.00,VWS V14.01,2014-02-16 16:03:00,
2014-02-16 11:08:00,26.6,12.6,29.89,WNW,285,0.0,0.0,55,0.00,,---,0.00,VWS V14.01,2014-02-16 16:08:00,
2014-02-16 11:14:00,27.1,12.7,29.89,WNW,285,0.0,0.0,54,0.00,,---,0.00,VWS V14.01,2014-02-16 16:14:00,
2014-02-16 11:19:00,26.8,12.8,29.89,WNW,285,0.0,0.0,55,0.00,,---,0.00,VWS V14.01,2014-02-16 16:19:00,
2014-02-16 11:24:00,27.3,12.9,29.89,WNW,285,0.0,0.0,54,0.00,,---,0.00,VWS V14.01,2014-02-16 16:24:00,
2014-02-16 11:29:00,28.2,14.1,29.89,WNW,285,0.0,0.0,55,0.00,,---,0.00,VWS V14.01,2014-02-16 16:29:00,
2014-02-16 11:34:00,28.4,13.9,29.89,WNW,285,0.0,0.0,54,0.00,,---,0.00,VWS V14.01,2014-02-16 16:34:00,
2014-02-16 11:39:00,28.9,13.5,29.89,WNW,285,0.0,0.0,52,0.00,,---,0.00,VWS V14.01,2014-02-16 16:39:00,
2014-02-16 11:44:00,29.1,13.7,29.89,WNW,285,0.0,0.0,52,0.00,,---,0.00,VWS V14.01,2014-02-16 16:44:00,
2014-02-16 11:49:00,28.4,13.5,29.89,WNW,283,0.0,0.0,53,0.00,,---,0.00,VWS V14.01,2014-02-16 16:49:00,
2014-02-16 11:54:00,28.2,13.7,29.86,West,281,0.0,0.0,54,0.00,,---,0.00,VWS V14.01,2014-02-16 16:54:00,
2014-02-16 11:59:00,28.6,14.1,29.86,West,281,0.0,0.0,54,0.00,,---,0.00,VWS V14.01,2014-02-16 16:59:00,
2014-02-16 12:04:00,29.8,15.2,29.86,West,281,0.0,0.0,54,0.00,,---,0.00,VWS V14.01,2014-02-16 17:04:00,
2014-02-16 12:09:00,28.4,15.5,29.86,West,279,0.0,0.0,58,0.00,,---,0.00,VWS V14.01,2014-02-16 17:09:00,
2014-02-16 12:14:00,29.5,16.1,29.86,West,278,0.0,0.0,57,0.00,,---,0.00,VWS V14.01,2014-02-16 17:14:00,
2014-02-16 12:19:00,28.8,16.2,29.86,West,277,0.0,0.0,59,0.00,,---,0.00,VWS V14.01,2014-02-16 17:19:00,
2014-02-16 12:24:00,28.4,15.9,29.86,West,275,0.0,0.0,59,0.00,,---,0.00,VWS V14.01,2014-02-16 17:24:00,
2014-02-16 12:29:00,28.6,16.5,29.86,West,274,0.0,0.0,60,0.00,,---,0.00,VWS V14.01,2014-02-16 17:29:00,
2014-02-16 12:34:00,29.1,17.0,29.86,West,273,0.0,0.0,60,0.00,,---,0.00,VWS V14.01,2014-02-16 17:34:00,
2014-02-16 12:39:00,29.1,17.0,29.86,West,273,0.0,0.0,60,0.00,,---,0.00,VWS V14.01,2014-02-16 17:39:00,
2014-02-16 12:44:00,29.3,17.5,29.86,West,272,0.0,0.0,61,0.00,,---,0.00,VWS V14.01,2014-02-16 17:44:00,
2014-02-16 12:50:00,29.5,17.3,29.86,West,273,0.0,0.0,60,0.00,,---,0.00,VWS V14.01,2014-02-16 17:50:00,
2014-02-16 12:54:00,29.5,17.3,29.86,West,272,0.0,0.0,60,0.00,,---,0.00,VWS V14.01,2014-02-16 17:54:00,
2014-02-16 13:00:00,29.8,18.0,29.86,West,272,0.0,0.0,61,0.00,,---,0.00,VWS V14.01,2014-02-16 18:00:00,
2014-02-16 13:05:00,29.5,17.7,29.86,West,267,0.0,0.0,61,0.00,,---,0.00,VWS V14.01,2014-02-16 18:05:00,
2014-02-16 13:10:00,29.1,17.7,29.86,West,267,0.0,0.0,62,0.00,,---,0.00,VWS V14.01,2014-02-16 18:10:00,
2014-02-16 13:15:00,29.1,17.7,29.86,West,267,0.0,0.0,62,0.00,,---,0.00,VWS V14.01,2014-02-16 18:15:00,
2014-02-16 13:20:00,29.3,18.3,29.86,West,266,0.0,0.0,63,0.00,,---,0.00,VWS V14.01,2014-02-16 18:20:00,
2014-02-16 13:25:00,28.9,17.6,29.86,West,266,0.0,0.0,62,0.00,,---,0.00,VWS V14.01,2014-02-16 18:25:00,
2014-02-16 13:30:00,28.9,17.9,29.86,West,265,0.0,0.0,63,0.00,,---,0.00,VWS V14.01,2014-02-16 18:30:00,
2014-02-16 13:35:00,29.3,18.3,29.86,West,265,0.0,0.0,63,0.00,,---,0.00,VWS V14.01,2014-02-16 18:35:00,
2014-02-16 13:40:00,29.3,18.3,29.86,West,264,0.0,0.0,63,0.00,,---,0.00,VWS V14.01,2014-02-16 18:40:00,
2014-02-16 13:45:00,29.1,18.5,29.86,West,260,0.0,0.0,64,0.00,,---,0.00,VWS V14.01,2014-02-16 18:45:00,
2014-02-16 13:50:00,29.1,18.8,29.86,South,180,0.0,0.0,65,0.00,,---,0.00,VWS V14.01,2014-02-16 18:50:00,
2014-02-16 13:55:00,29.5,19.5,29.86,South,181,0.0,0.0,66,0.00,,---,0.00,VWS V14.01,2014-02-16 18:55:00,
2014-02-16 14:00:00,29.5,19.5,29.86,SW,233,0.0,0.0,66,0.00,,---,0.00,VWS V14.01,2014-02-16 19:00:00,
2014-02-16 14:05:00,29.8,19.9,29.86,SW,233,0.0,0.0,66,0.00,,---,0.00,VWS V14.01,2014-02-16 19:05:00,
2014-02-16 14:10:00,29.7,20.1,29.86,SW,232,0.0,0.0,67,0.00,,---,0.00,VWS V14.01,2014-02-16 19:10:00,
2014-02-16 14:15:00,29.7,20.1,29.86,SW,232,0.0,0.0,67,0.00,,---,0.00,VWS V14.01,2014-02-16 19:15:00,
2014-02-16 14:20:00,29.8,20.2,29.86,SW,232,0.0,0.0,67,0.00,,---,0.00,VWS V14.01,2014-02-16 19:20:00,
2014-02-16 14:25:00,29.8,19.9,29.86,SW,231,0.0,0.0,66,0.00,,---,0.00,VWS V14.01,2014-02-16 19:25:00,
2014-02-16 14:30:00,30.0,20.0,29.86,SW,231,0.0,0.0,66,0.00,,---,0.00,VWS V14.01,2014-02-16 19:30:00,
2014-02-16 14:35:00,30.2,20.2,29.86,SW,231,0.0,0.0,66,0.00,,---,0.00,VWS V14.01,2014-02-16 19:35:00,
2014-02-16 14:40:00,30.2,20.2,29.86,SW,231,0.0,0.0,66,0.00,,---,0.00,VWS V14.01,2014-02-16 19:40:00,
2014-02-16 14:44:00,29.8,20.6,29.86,SW,231,0.0,0.0,68,0.00,,---,0.00,VWS V14.01,2014-02-16 19:44:00,
2014-02-16 14:50:00,30.0,20.4,29.86,SW,231,0.0,0.0,67,0.00,,---,0.00,VWS V14.01,2014-02-16 19:50:00,
2014-02-16 14:54:00,30.2,20.9,29.86,SW,231,0.0,0.0,68,0.00,,---,0.00,VWS V14.01,2014-02-16 19:54:00,
2014-02-16 14:59:00,30.2,20.6,29.86,SW,231,0.0,0.0,67,0.00,,---,0.00,VWS V14.01,2014-02-16 19:59:00,
2014-02-16 15:04:00,30.2,20.9,29.86,SW,231,0.0,0.0,68,0.00,,---,0.00,VWS V14.01,2014-02-16 20:04:00,
2014-02-16 15:09:00,30.0,20.4,29.83,SW,231,0.0,0.0,67,0.00,,---,0.00,VWS V14.01,2014-02-16 20:09:00,
2014-02-16 15:14:00,30.2,20.6,29.83,SW,231,0.0,0.0,67,0.00,,---,0.00,VWS V14.01,2014-02-16 20:14:00,
2014-02-16 15:19:00,30.2,20.6,29.83,SW,231,0.0,0.0,67,0.00,,---,0.00,VWS V14.01,2014-02-16 20:19:00,
2014-02-16 15:25:00,30.2,20.9,29.86,SW,231,0.0,0.0,68,0.00,,---,0.00,VWS V14.01,2014-02-16 20:25:00,
2014-02-16 15:30:00,30.2,21.3,29.86,SW,231,0.0,0.0,69,0.00,,---,0.00,VWS V14.01,2014-02-16 20:30:00,
2014-02-16 15:35:00,30.2,20.9,29.86,SW,231,0.0,0.0,68,0.00,,---,0.00,VWS V14.01,2014-02-16 20:35:00,
2014-02-16 15:40:00,30.4,21.4,29.86,SW,231,0.0,0.0,69,0.00,,---,0.00,VWS V14.01,2014-02-16 20:40:00,
2014-02-16 15:45:00,30.2,20.9,29.86,SW,231,0.0,0.0,68,0.00,,---,0.00,VWS V14.01,2014-02-16 20:45:00,
2014-02-16 15:50:00,30.2,21.6,29.86,SW,231,0.0,0.0,70,0.00,,---,0.00,VWS V14.01,2014-02-16 20:50:00,
2014-02-16 15:55:00,30.2,21.6,29.86,SW,231,0.0,0.0,70,0.00,,---,0.00,VWS V14.01,2014-02-16 20:55:00,
2014-02-16 16:00:00,30.2,21.6,29.86,SW,231,0.0,0.0,70,0.00,,---,0.00,VWS V14.01,2014-02-16 21:00:00,
2014-02-16 16:05:00,30.2,21.9,29.86,SW,231,0.0,0.0,71,0.00,,---,0.00,VWS V14.01,2014-02-16 21:05:00,
2014-02-16 16:10:00,30.2,21.6,29.86,SW,231,0.0,0.0,70,0.00,,---,0.00,VWS V14.01,2014-02-16 21:10:00,
2014-02-16 16:15:00,30.2,21.3,29.86,SW,231,0.0,0.0,69,0.00,,---,0.00,VWS V14.01,2014-02-16 21:15:00,
2014-02-16 16:20:00,30.2,21.6,29.86,SW,230,0.0,0.0,70,0.00,,---,0.00,VWS V14.01,2014-02-16 21:20:00,
2014-02-16 16:25:00,30.2,21.9,29.89,SW,230,0.0,0.0,71,0.00,,---,0.00,VWS V14.01,2014-02-16 21:25:00,
2014-02-16 16:30:00,30.2,21.6,29.89,SW,230,0.0,0.0,70,0.00,,---,0.00,VWS V14.01,2014-02-16 21:30:00,
2014-02-16 16:35:00,30.2,21.9,29.89,SW,230,0.0,0.0,71,0.00,,---,0.00,VWS V14.01,2014-02-16 21:35:00,
2014-02-16 16:41:00,30.2,22.3,29.89,SW,230,0.0,0.0,72,0.00,,---,0.00,VWS V14.01,2014-02-16 21:41:00,
2014-02-16 16:46:00,30.2,22.3,29.89,SW,230,0.0,0.0,72,0.00,,---,0.00,VWS V14.01,2014-02-16 21:46:00,
2014-02-16 16:51:00,30.4,22.1,29.89,SW,230,0.0,0.0,71,0.00,,---,0.00,VWS V14.01,2014-02-16 21:51:00,
2014-02-16 16:56:00,30.6,22.3,29.89,SW,230,0.0,0.0,71,0.00,,---,0.00,VWS V14.01,2014-02-16 21:56:00,
2014-02-16 17:01:00,30.6,22.3,29.89,SW,230,0.0,0.0,71,0.00,,---,0.00,VWS V14.01,2014-02-16 22:01:00,
2014-02-16 17:06:00,30.7,22.1,29.89,SW,230,0.0,0.0,70,0.00,,---,0.00,VWS V14.01,2014-02-16 22:06:00,
2014-02-16 17:11:00,30.6,22.3,29.89,SW,230,0.0,0.0,71,0.00,,---,0.00,VWS V14.01,2014-02-16 22:11:00,
2014-02-16 17:16:00,30.6,22.3,29.89,SW,230,0.0,0.0,71,0.00,,---,0.00,VWS V14.01,2014-02-16 22:16:00,
2014-02-16 17:21:00,30.6,22.6,29.89,SW,230,0.0,0.0,72,0.00,,---,0.00,VWS V14.01,2014-02-16 22:21:00,
2014-02-16 17:26:00,30.7,22.1,29.89,SW,226,0.0,0.0,70,0.00,,---,0.00,VWS V14.01,2014-02-16 22:26:00,
2014-02-16 17:31:00,31.1,22.1,29.89,SW,225,0.0,0.0,69,0.00,,---,0.00,VWS V14.01,2014-02-16 22:31:00,
2014-02-16 17:36:00,30.9,22.0,29.89,SW,225,0.0,0.0,69,0.00,,---,0.00,VWS V14.01,2014-02-16 22:36:00,
2014-02-16 17:41:00,30.7,21.8,29.92,SW,225,0.0,0.0,69,0.00,,---,0.00,VWS V14.01,2014-02-16 22:41:00,
2014-02-16 17:46:00,30.7,21.8,29.92,SW,225,0.0,0.0,69,0.00,,---,0.00,VWS V14.01,2014-02-16 22:46:00,
2014-02-16 17:51:00,31.1,21.1,29.92,SW,217,0.0,0.0,66,0.00,,---,0.00,VWS V14.01,2014-02-16 22:51:00,
2014-02-16 17:56:00,30.9,20.9,29.92,South,189,0.0,0.0,66,0.00,,---,0.00,VWS V14.01,2014-02-16 22:56:00,
2014-02-16 18:01:00,31.1,20.4,29.92,SSW,194,0.0,0.0,64,0.00,,---,0.00,VWS V14.01,2014-02-16 23:01:00,
2014-02-16 18:06:00,30.9,20.5,29.92,WSW,252,0.0,0.0,65,0.00,,---,0.00,VWS V14.01,2014-02-16 23:06:00,
2014-02-16 18:11:00,30.9,20.5,29.92,West,267,0.0,0.0,65,0.00,,---,0.00,VWS V14.01,2014-02-16 23:11:00,
2014-02-16 18:16:00,31.1,20.7,29.92,SSW,213,0.0,0.0,65,0.00,,---,0.00,VWS V14.01,2014-02-16 23:16:00,
2014-02-16 18:21:00,30.7,20.7,29.92,SSE,148,0.0,0.0,66,0.00,,---,0.00,VWS V14.01,2014-02-16 23:21:00,
2014-02-16 18:26:00,30.6,20.2,29.95,South,179,0.0,0.0,65,0.00,,---,0.00,VWS V14.01,2014-02-16 23:26:00,
2014-02-16 18:31:00,30.7,20.0,29.95,SSW,205,0.0,0.0,64,0.00,,---,0.00,VWS V14.01,2014-02-16 23:31:00,
2014-02-16 18:36:00,30.6,19.5,29.95,SSW,195,0.0,0.0,63,0.00,,---,0.00,VWS V14.01,2014-02-16 23:36:00,
2014-02-16 18:41:00,31.1,18.9,29.95,SW,231,0.0,0.0,60,0.00,,---,0.00,VWS V14.01,2014-02-16 23:41:00,
2014-02-16 18:46:00,30.9,18.3,29.95,WSW,249,0.0,3.6,59,0.00,,---,0.00,VWS V14.01,2014-02-16 23:46:00,
2014-02-16 18:51:00,30.7,17.3,29.95,SSW,210,3.6,7.6,57,0.00,,---,0.00,VWS V14.01,2014-02-16 23:51:00,
2014-02-16 18:56:00,30.4,17.8,29.95,SSW,193,2.7,4.0,59,0.00,,---,0.00,VWS V14.01,2014-02-16 23:56:00,
2014-02-16 19:01:00,30.2,18.0,29.95,WSW,247,8.1,8.1,60,0.00,,---,0.00,VWS V14.01,2014-02-17 00:01:00,
2014-02-16 19:06:00,30.2,17.6,29.95,East,90,4.0,8.1,59,0.00,,---,0.00,VWS V14.01,2014-02-17 00:06:00,
2014-02-16 19:11:00,30.0,17.8,29.95,SSW,199,4.0,5.8,60,0.00,,---,0.00,VWS V14.01,2014-02-17 00:11:00,
2014-02-16 19:16:00,29.7,17.9,29.95,SSW,208,4.0,4.0,61,0.00,,---,0.00,VWS V14.01,2014-02-17 00:16:00,
2014-02-16 19:21:00,29.8,18.4,29.95,South,178,11.0,12.8,62,0.00,,---,0.00,VWS V14.01,2014-02-17 00:21:00,
2014-02-16 19:26:00,30.2,16.8,29.95,South,171,4.0,7.6,57,0.00,,---,0.00,VWS V14.01,2014-02-17 00:26:00,
2014-02-16 19:31:00,30.2,16.8,29.95,SSE,164,5.8,8.1,57,0.00,,---,0.00,VWS V14.01,2014-02-17 00:31:00,
2014-02-16 19:36:00,30.0,16.6,29.95,SW,214,9.6,9.6,57,0.00,,---,0.00,VWS V14.01,2014-02-17 00:36:00,
2014-02-16 19:41:00,30.0,16.6,29.95,West,267,3.6,4.0,57,0.00,,---,0.00,VWS V14.01,2014-02-17 00:41:00,
2014-02-16 19:46:00,30.2,16.4,29.95,South,188,8.1,8.1,56,0.00,,---,0.00,VWS V14.01,2014-02-17 00:46:00,
2014-02-16 19:51:00,30.0,16.2,29.95,SW,222,6.3,7.2,56,0.00,,---,0.00,VWS V14.01,2014-02-17 00:51:00,
2014-02-16 19:56:00,29.8,16.1,29.98,SW,230,12.8,12.8,56,0.00,,---,0.00,VWS V14.01,2014-02-17 00:56:00,
2014-02-16 20:01:00,29.3,16.0,29.98,SW,216,5.8,5.8,57,0.00,,---,0.00,VWS V14.01,2014-02-17 01:01:00,
2014-02-16 20:06:00,29.5,16.5,29.98,SSW,205,10.1,10.1,58,0.00,,---,0.00,VWS V14.01,2014-02-17 01:06:00,
2014-02-16 20:11:00,29.7,16.3,29.98,WSW,258,3.1,6.3,57,0.00,,---,0.00,VWS V14.01,2014-02-17 01:11:00,
2014-02-16 20:16:00,28.9,16.4,29.98,South,189,5.8,6.3,59,0.00,,---,0.00,VWS V14.01,2014-02-17 01:16:00,
2014-02-16 20:22:00,28.8,16.2,29.98,SSW,207,3.1,4.0,59,0.00,,---,0.00,VWS V14.01,2014-02-17 01:22:00,
2014-02-16 20:27:00,28.2,16.1,29.98,SSE,162,5.8,6.3,60,0.00,,---,0.00,VWS V14.01,2014-02-17 01:27:00,
2014-02-16 20:32:00,28.4,15.5,29.98,SW,214,3.1,5.4,58,0.00,,---,0.00,VWS V14.01,2014-02-17 01:32:00,
2014-02-16 20:37:00,28.4,15.1,29.98,West,279,4.0,5.8,57,0.00,,---,0.00,VWS V14.01,2014-02-17 01:37:00,
2014-02-16 20:42:00,28.6,14.5,29.98,South,177,13.2,13.2,55,0.00,,---,0.00,VWS V14.01,2014-02-17 01:42:00,
2014-02-16 20:47:00,28.0,14.0,29.98,WSW,252,8.3,8.3,55,0.00,,---,0.00,VWS V14.01,2014-02-17 01:47:00,
2014-02-16 20:52:00,27.9,14.2,29.98,SSE,168,5.4,5.8,56,0.00,,---,0.00,VWS V14.01,2014-02-17 01:52:00,
2014-02-16 20:57:00,28.4,14.3,29.98,South,188,8.7,10.1,55,0.00,,---,0.00,VWS V14.01,2014-02-17 01:57:00,
2014-02-16 21:02:00,28.0,14.4,29.98,SSW,203,5.8,10.1,56,0.00,,---,0.00,VWS V14.01,2014-02-17 02:02:00,
2014-02-16 21:07:00,27.9,14.2,29.98,SE,139,2.2,3.6,56,0.00,,---,0.00,VWS V14.01,2014-02-17 02:07:00,
2014-02-16 21:12:00,27.9,14.6,30.01,ESE,119,3.1,9.6,57,0.00,,---,0.00,VWS V14.01,2014-02-17 02:12:00,
2014-02-16 21:14:00,27.9,14.6,30.01,SSW,210,5.4,7.6,57,0.00,,---,0.00,VWS V14.01,2014-02-17 02:14:00,
2014-02-16 21:19:00,27.9,15.0,30.01,SW,227,3.6,5.4,58,0.00,,---,0.00,VWS V14.01,2014-02-17 02:19:00,
2014-02-16 21:24:00,28.0,14.8,30.01,SW,228,4.0,4.0,57,0.00,,---,0.00,VWS V14.01,2014-02-17 02:24:00,
2014-02-16 21:29:00,28.0,14.8,30.01,South,175,8.1,8.1,57,0.00,,---,0.00,VWS V14.01,2014-02-17 02:29:00,
2014-02-16 21:34:00,27.7,15.2,30.01,South,180,4.9,5.4,59,0.00,,---,0.00,VWS V14.01,2014-02-17 02:34:00,
2014-02-16 21:39:00,27.5,15.4,30.01,SSW,199,4.0,4.0,60,0.00,,---,0.00,VWS V14.01,2014-02-17 02:39:00,
2014-02-16 21:44:00,27.3,15.3,30.01,SW,235,2.7,6.3,60,0.00,,---,0.00,VWS V14.01,2014-02-17 02:44:00,
2014-02-16 21:49:00,27.0,15.3,30.01,ESE,106,2.7,3.6,61,0.00,,---,0.00,VWS V14.01,2014-02-17 02:49:00,
2014-02-16 21:54:00,27.0,14.9,30.01,SSW,193,11.9,11.9,60,0.00,,---,0.00,VWS V14.01,2014-02-17 02:54:00,
2014-02-16 21:59:00,27.5,14.3,30.01,SW,216,5.4,8.1,57,0.00,,---,0.00,VWS V14.01,2014-02-17 02:59:00,
2014-02-16 22:04:00,27.5,14.3,30.01,South,176,5.8,5.8,57,0.00,,---,0.00,VWS V14.01,2014-02-17 03:04:00,
2014-02-16 22:09:00,27.5,15.1,30.01,SSW,208,3.1,3.1,59,0.00,,---,0.00,VWS V14.01,2014-02-17 03:09:00,
2014-02-16 22:14:00,27.1,14.7,30.01,SW,221,3.1,4.0,59,0.00,,---,0.00,VWS V14.01,2014-02-17 03:14:00,
2014-02-16 22:19:00,27.3,14.9,30.01,SSW,211,0.0,4.9,59,0.00,,---,0.00,VWS V14.01,2014-02-17 03:19:00,
2014-02-16 22:24:00,27.1,15.1,30.01,SW,229,0.0,2.2,60,0.00,,---,0.00,VWS V14.01,2014-02-17 03:24:00,
2014-02-16 22:29:00,27.0,15.7,30.01,SSE,168,0.0,0.0,62,0.00,,---,0.00,VWS V14.01,2014-02-17 03:29:00,
2014-02-16 22:34:00,26.6,15.7,30.01,SW,224,0.0,0.0,63,0.00,,---,0.00,VWS V14.01,2014-02-17 03:34:00,
2014-02-16 22:39:00,26.2,16.1,30.03,SSW,202,0.0,0.0,65,0.00,,---,0.00,VWS V14.01,2014-02-17 03:39:00,
2014-02-16 22:44:00,26.1,16.3,30.03,SSW,202,0.0,0.0,66,0.00,,---,0.00,VWS V14.01,2014-02-17 03:44:00,
2014-02-16 22:49:00,25.7,15.9,30.03,SW,218,0.0,0.0,66,0.00,,---,0.00,VWS V14.01,2014-02-17 03:49:00,
2014-02-16 22:54:00,25.3,16.3,30.03,WSW,240,2.7,2.7,68,0.00,,---,0.00,VWS V14.01,2014-02-17 03:54:00,
2014-02-16 22:59:00,25.5,15.4,30.03,SW,224,3.6,4.0,65,0.00,,---,0.00,VWS V14.01,2014-02-17 03:59:00,
2014-02-16 23:13:00,25.3,13.0,30.01,SW,232,4.9,6.3,59,0.00,,---,0.00,VWS V14.01,2014-02-17 04:13:00,
2014-02-16 23:18:00,25.5,12.8,30.01,SSW,211,2.7,6.3,58,0.00,,---,0.00,VWS V14.01,2014-02-17 04:18:00,
2014-02-16 23:23:00,25.5,13.2,30.01,WSW,244,5.4,5.4,59,0.00,,---,0.00,VWS V14.01,2014-02-17 04:23:00,
2014-02-16 23:28:00,25.3,12.6,30.01,WSW,243,4.9,7.6,58,0.00,,---,0.00,VWS V14.01,2014-02-17 04:28:00,
2014-02-16 23:33:00,25.3,13.4,30.01,South,176,3.1,4.0,60,0.00,,---,0.00,VWS V14.01,2014-02-17 04:33:00,
2014-02-16 23:39:00,25.2,12.9,30.03,SW,217,3.1,5.8,59,0.00,,---,0.00,VWS V14.01,2014-02-17 04:39:00,
2014-02-16 23:43:00,24.8,12.9,30.03,SW,230,6.3,6.3,60,0.00,,---,0.00,VWS V14.01,2014-02-17 04:43:00,
2014-02-16 23:48:00,24.3,12.8,30.03,SW,225,2.2,3.6,61,0.00,,---,0.00,VWS V14.01,2014-02-17 04:48:00,
2014-02-16 23:53:00,23.7,13.0,30.03,West,261,2.2,3.6,63,0.00,,---,0.00,VWS V14.01,2014-02-17 04:53:00,
2014-02-16 23:58:00,23.0,13.4,30.03,West,261,0.0,0.0,66,0.00,,---,0.00,VWS V14.01,2014-02-17 04:58:00,